Flag for Switzerland Weather past 2 weeks in Muttenz, Basel-Land, Switzerland

Now
43 °F

Light rain. Broken clouds.


Feels Like: 36 °F
Forecast: 28 / 42 °F
Wind: 12 mph from West

Location: Bale-Mulhouse

Current Time: Feb 27, 2015 at 1:13:31 PM

Latest Report: Feb 27, 2015 at 12:30 PM


Visibility: N/A

Pressure: 29.92 "Hg

Humidity: 87%

Dew point: 39 °F

Location of MuttenzLocation

Historic Weather in Muttenz — Graph

°F

Muttenz temperature yesterday

Maximum temperature yesterday: 52 °F (at 3:00 PM)
Minimum temperature yesterday: 28 °F (at 12:30 AM)
Average temperature yesterday: 41 °F

Past Weeks' High & Low Weather Summary

 TemperatureHumidityPressure
High61 °F (Feb 20, 4:00 PM)100% (Feb 12, 9:30 PM)30.69 "Hg (Feb 12, 9:30 PM)
Low23 °F (Feb 13, 2:30 AM)18% (Feb 20, 5:00 PM)29.56 "Hg (Feb 21, 6:30 AM)
Average38 °F80%30.03 "Hg
* Reported Feb 12 12:00 Noon — Feb 27 12:00 Noon, Muttenz, Weather by CustomWeather, © 2015

Note: Actual official high and low records may vary slightly from our data, if they occured in-between our weather recording intervals... More about our weather records

Advertising

Muttenz weather history for previous 24 hours

 ConditionsComfort  
Time TempWeatherWind HumidityBarometerVisibility
12:00 PM
Fri, Feb 27
43 °FLight rain. Broken clouds.14 mph87%29.89 "HgN/A
11:30 AM43 °FLight rain. More clouds than sun.9 mph87%29.89 "Hg6 mi
11:00 AM43 °FLight rain. Partly sunny.8 mph93%29.86 "Hg4 mi
10:30 AM41 °FLight rain. Fog.3 mph93%29.86 "Hg3 mi
10:00 AM39 °FLight rain. Fog.7 mph93%29.83 "Hg3 mi
9:30 AM39 °FLight rain. Fog.7 mph93%29.83 "Hg3 mi
9:00 AM37 °FLight rain. Partly sunny.3 mph100%29.80 "Hg3 mi
8:30 AM37 °FLight rain. Partly sunny.3 mph100%29.80 "Hg3 mi
7:30 AM37 °FLight rain. Partly sunny.3 mph93%29.80 "Hg4 mi
7:00 AM37 °FLight rain. Passing clouds.8 mph93%29.80 "Hg5 mi
6:30 AM37 °FLight rain. Passing clouds.9 mph87%29.77 "Hg5 mi
6:00 AM37 °FLight rain. Passing clouds.8 mph87%29.80 "HgN/A
5:30 AM39 °FLight rain. Passing clouds.8 mph81%29.80 "HgN/A
5:00 AM39 °FLight rain. Passing clouds.8 mph81%29.80 "HgN/A
4:30 AM39 °FLight rain. Passing clouds.6 mph75%29.80 "HgN/A
4:00 AM39 °FLight rain. Mostly cloudy.6 mph70%29.80 "HgN/A
3:30 AM41 °FMostly cloudy.No wind66%29.80 "HgN/A
3:00 AM41 °FMostly cloudy.3 mph70%29.83 "HgN/A
2:30 AM41 °FLight rain. Mostly cloudy.3 mph66%29.86 "HgN/A
2:00 AM41 °FMostly cloudy.3 mph66%29.86 "HgN/A
1:30 AM41 °FMostly cloudy.2 mph66%29.86 "HgN/A
1:00 AM43 °FOvercast.5 mph57%29.89 "HgN/A
12:30 AM43 °FPassing clouds.6 mph53%29.89 "HgN/A
12:00 AM43 °FPassing clouds.2 mph53%29.92 "HgN/A
11:30 PM
Thu, Feb 26
43 °FClear.7 mph53%29.92 "Hg10 mi
11:00 PM43 °FClear.7 mph53%29.92 "Hg10 mi
10:30 PM43 °FPassing clouds.7 mph53%29.92 "HgN/A
9:30 PM45 °FClear.5 mph46%29.95 "Hg10 mi
9:00 PM45 °FClear.2 mph46%29.95 "Hg10 mi
8:30 PM45 °FClear.3 mph49%29.98 "Hg10 mi
8:00 PM45 °FClear.6 mph49%29.98 "Hg10 mi
7:30 PM46 °FClear.7 mph46%29.98 "Hg10 mi
7:00 PM46 °FClear.8 mph46%29.98 "Hg10 mi
6:30 PM46 °FPassing clouds.7 mph46%29.98 "HgN/A
6:00 PM46 °FPassing clouds.5 mph43%30.01 "HgN/A
5:30 PM48 °FPassing clouds.5 mph40%30.01 "HgN/A
5:00 PM50 °FPartly sunny.5 mph37%30.01 "HgN/A
4:30 PM50 °FPartly sunny.7 mph35%30.01 "HgN/A
4:00 PM50 °FPartly sunny.7 mph37%30.01 "HgN/A
3:30 PM50 °FScattered clouds.7 mph37%30.01 "HgN/A
3:00 PM52 °FScattered clouds.7 mph35%30.04 "HgN/A
2:30 PM50 °FPassing clouds.7 mph40%30.04 "HgN/A
2:00 PM50 °FPassing clouds.3 mph43%30.07 "HgN/A
1:30 PM50 °FPassing clouds.3 mph40%30.07 "HgN/A
1:00 PM48 °FPassing clouds.6 mph43%30.09 "HgN/A
Weather by CustomWeather, © 2015

See weather overviewHow to use our weather pages